Weather History for Barrow, AK

Change the Weather History Date:

Wednesday, February 13, 2013

  Actual Average Record
Temperature  
Mean Temperature -17 °F -14 °F  
Max Temperature -13 °F -8 °F 30 °F (1959)
Min Temperature -20 °F -20 °F -44 °F (1964)
Degree Days  
Heating Degree Days 82 79  
Month to date heating degree days 1101 1027  
Since 1 July heating degree days 10747 11663  
Cooling Degree Days 0    
Month to date cooling degree days 0  
Year to date cooling degree days 0  
Moisture  
Dew Point -22 °F    
Average Humidity 0    
Maximum Humidity 0    
Minimum Humidity 0    
Precipitation  
Precipitation 0.00 in 0.00 in 0.30 in (1959)
Month to date precipitation T 0.06  
Year to date precipitation 0.06 0.19  
Snow  
Snow 0.00 in 0.10 in 3.00 in (1959)
Month to date snowfall 0.4 1.2  
Since 1 July snowfall 41.7 27.6  
Snow Depth 6.00 in    
Sea Level Pressure  
Sea Level Pressure 30.04 in    
Wind  
Wind Speed 14 mph (ENE)    
Max Wind Speed 21 mph    
Max Gust Speed 23 mph    
Visibility 9 miles    
Events      
T = Trace of Precipitation, MM = Missing Value Source: NWS Daily Summary

Daily Weather History Graph

Daily Weather History Graph

Search for Another Location

Airport:

Trip Planner

Search our weather history database for the weather conditions in past years. The results will help you decide how hot, cold, wet, or windy it might be!

Date:

Astronomy

Feb. 13, 2013 Rise Set
Actual Time 10:20 AM AKST 5:03 PM AKST
Civil Twilight 9:04 AM AKST 6:20 PM AKST
Nautical Twilight 7:46 AM AKST 7:37 PM AKST
Astronomical Twilight 6:31 AM AKST 8:53 PM AKST
Moon 8:59 AM AKST (2/13) No Moon Set
Length of Visible Light 9h 16m
Length of Day
6h 43m
Waxing Crescent, 15% of the Moon is Illuminated
Feb 13
Waxing Crescent
Feb 17
First Quarter
Feb 25
Full
Mar 4
Last Quarter
Mar 11
New

Hourly Weather History & Observations

Time (AKST) Temp. Windchill Dew Point Humidity Pressure Visibility Wind Dir Wind Speed Gust Speed Precip Events Conditions
12:53 AM -17.0 °F -36.1 °F -23.1 °F 74% 29.98 in 10.0 mi ENE 9.2 mph - N/A   Clear
1:53 AM -17.0 °F -37.3 °F -22.0 °F 78% 29.99 in 10.0 mi ENE 10.4 mph - N/A   Clear
2:53 AM -16.6 °F -37.9 °F -22.0 °F 76% 29.98 in 10.0 mi ENE 11.5 mph - N/A   Clear
3:53 AM -16.1 °F -37.2 °F -22.0 °F 74% 30.00 in 10.0 mi ENE 11.5 mph - N/A   Clear
4:53 AM -16.1 °F -37.2 °F -22.0 °F 74% 30.00 in 10.0 mi ENE 11.5 mph - N/A   Clear
5:53 AM -18.0 °F -37.5 °F -23.1 °F 78% 30.00 in 10.0 mi NE 9.2 mph - N/A   Clear
6:53 AM -17.0 °F -37.3 °F -23.1 °F 74% 30.00 in 10.0 mi ENE 10.4 mph - N/A   Clear
7:53 AM -18.9 °F -39.8 °F -24.0 °F 78% 30.01 in 10.0 mi ENE 10.4 mph - N/A   Clear
8:53 AM -20.0 °F -42.2 °F -25.1 °F 78% 30.01 in 10.0 mi ENE 11.5 mph - N/A   Partly Cloudy
9:53 AM -18.0 °F -42.5 °F -23.1 °F 78% 30.02 in 10.0 mi ENE 15.0 mph - N/A   Overcast
10:53 AM -17.0 °F -41.1 °F -23.1 °F 74% 30.03 in 10.0 mi ENE 15.0 mph - N/A   Mostly Cloudy
11:53 AM -16.1 °F -39.1 °F -22.0 °F 74% 30.04 in 10.0 mi ENE 13.8 mph - N/A   Overcast
12:53 PM -15.0 °F -37.7 °F -20.9 °F 75% 30.05 in 10.0 mi ENE 13.8 mph - N/A   Mostly Cloudy
1:53 PM -14.1 °F -38.2 °F -20.0 °F 75% 30.06 in 10.0 mi ENE 16.1 mph - N/A   Mostly Cloudy
2:53 PM -13.0 °F -37.5 °F -18.9 °F 75% 30.06 in 10.0 mi ENE 17.3 mph - N/A   Mostly Cloudy
3:53 PM -13.0 °F -36.8 °F -18.9 °F 75% 30.06 in 10.0 mi ENE 16.1 mph 21.9 mph N/A   Mostly Cloudy
4:53 PM -13.0 °F -36.0 °F -18.9 °F 75% 30.06 in 10.0 mi ENE 15.0 mph - N/A   Overcast
5:53 PM -14.1 °F -40.2 °F -20.0 °F 75% 30.06 in 10.0 mi ENE 19.6 mph - N/A   Overcast
6:53 PM -14.1 °F -37.4 °F -20.0 °F 75% 30.07 in 10.0 mi ENE 15.0 mph - N/A   Overcast
7:53 PM -15.0 °F -42.0 °F -20.0 °F 78% 30.07 in 10.0 mi ENE 20.7 mph - N/A   Overcast
8:53 PM -16.1 °F -42.8 °F -20.9 °F 79% 30.09 in 9.0 mi ENE 19.6 mph - N/A   Overcast
9:53 PM -17.0 °F -36.1 °F -23.1 °F 74% 30.09 in 6.0 mi NNE 9.2 mph - N/A   Overcast
10:53 PM -18.9 °F -38.6 °F -25.1 °F 74% 30.09 in 5.0 mi NE 9.2 mph - N/A   Mostly Cloudy
11:11 PM -18.4 °F -44.5 °F -25.6 °F 70% 30.07 in 6.0 mi ENE 17.3 mph - N/A   Mostly Cloudy
11:53 PM -20.0 °F -45.0 °F -26.0 °F 74% 30.09 in 5.0 mi ENE 15.0 mph 19.6 mph N/A   Clear